Please be sure to check the latest weather conditions by clicking the link and viewing our local weather information!

Check Weather

Welcome to Lakeway Airpark (3R9)

FromTheAir

We’re a community airpark nestled within the town of Lakeway, Texas (17 miles northwest of downtown Austin).

Lakeway Airpark, Inc. was formed by Lakeway residents and interested parties to own and manage Lakeway Airpark (3R9).

The Airpark is a privately owned not for profit public use airport for residents and guests of Lakeway. No public funds are used and the airport is supported by fees and fuel sales at the airport.

Lakeway Airpark is an unmanned facility open for use from Sunrise to Sunset seven days a week. Takeoffs and landings are not permitted at night, between Sunset and Sunrise, by City Ordinance.

Quick Weather Info

Available data for KAUS from the past 2 hours
AUSTIN, TX
Metar
KAUS 242304Z 21005KT 9SM SCT020 SCT036 OVC120 23/20 A2985 RMK AO2 T02280200

23:04 UTC

Wind: 210° 5kt

Visibility: 9 SM

Sky: SCT 2000 ft

Temp: 23 deg C / 73.4 deg F

Dewpoint: 20 deg C / 68 deg F

Pressure: 29.85 inHg

TAF
KAUS 241859Z 2419/2524 20016KT P6SM VCSH BKN035 FM242200 28010KT P6SM BKN200 FM251300 02008KT P6SM VCSH BKN015
Pirep (1)
AUS UA /OV CWK /TM 2135 /FL230 /TP C510 /TA M09 /IC LGT RIME /RM FM KZHU AWC-WEB